Voltar ao catálogo

BREEZE-M DEB

AtivoHEO
NORAD 32040·DEBRIS·🇷🇺 Russia

Lançado Feb 28, 2006 de Baikonur Cosmodrome

Loading…

Próximas Passagens (próximas 24 horas)

TLE

AtualizadoSource: Space-Track

Época: Sep 8, 2026, 14:41 UTC

1 32040U 06006T   26251.61212678  .00001858  00000-0  11730-2 0  9996
2 32040  51.6512  52.6335 4796505  19.9822 353.7602  5.82141507275285

Acompanhe BREEZE-M DEB em tempo real com AllMySat

Download on the App Store